TimeEST,TemperatureF,Dew PointF,Humidity,Sea Level PressureIn,VisibilityMPH,Wind Direction,Wind SpeedMPH,Gust SpeedMPH,PrecipitationIn,Events,Conditions,WindDirDegrees,DateUTC
12:54 AM,9.0,-7.1,48,29.94,-9999.0,West,24.2,34.5,N/A,,Unknown,280,2014-02-28 05:54:00
1:54 AM,8.1,-7.1,50,29.99,-9999.0,WNW,21.9,31.1,N/A,,Unknown,290,2014-02-28 06:54:00
2:54 AM,7.0,-9.0,48,30.02,-9999.0,West,17.3,26.5,N/A,,Unknown,270,2014-02-28 07:54:00
3:54 AM,6.1,-8.0,53,30.05,-9999.0,West,17.3,29.9,N/A,,Unknown,270,2014-02-28 08:54:00
4:54 AM,6.1,-8.0,53,30.10,-9999.0,West,20.7,29.9,N/A,,Unknown,280,2014-02-28 09:54:00
5:54 AM,5.0,-9.0,52,30.15,-9999.0,WNW,12.7,20.7,N/A,,Unknown,290,2014-02-28 10:54:00
6:54 AM,5.0,-9.0,52,30.19,-9999.0,WNW,13.8,23.0,N/A,,Unknown,290,2014-02-28 11:54:00
7:54 AM,7.0,-9.0,48,30.22,-9999.0,WNW,16.1,23.0,N/A,,Unknown,290,2014-02-28 12:54:00
8:54 AM,10.0,-7.1,46,30.25,-9999.0,WNW,13.8,23.0,N/A,,Unknown,300,2014-02-28 13:54:00
9:54 AM,14.0,-9.0,35,30.27,-9999.0,NW,12.7,20.7,N/A,,Unknown,320,2014-02-28 14:54:00
10:54 AM,16.0,-9.0,32,30.31,-9999.0,WNW,15.0,23.0,N/A,,Unknown,300,2014-02-28 15:54:00
12:54 PM,19.0,-11.9,25,30.30,-9999.0,WNW,9.2,17.3,N/A,,Unknown,290,2014-02-28 17:54:00
1:54 PM,19.9,-11.0,25,30.31,-9999.0,West,13.8,19.6,N/A,,Unknown,280,2014-02-28 18:54:00
2:54 PM,19.9,-9.9,26,30.34,-9999.0,Variable,6.9,18.4,N/A,,Unknown,0,2014-02-28 19:54:00
3:54 PM,21.0,-11.0,24,30.35,-9999.0,West,8.1,16.1,N/A,,Unknown,280,2014-02-28 20:54:00
4:54 PM,19.9,-11.0,25,30.37,-9999.0,West,5.8,-,N/A,,Unknown,270,2014-02-28 21:54:00
5:54 PM,18.0,-11.0,27,30.38,-9999.0,WSW,5.8,-,N/A,,Unknown,240,2014-02-28 22:54:00
6:54 PM,17.1,-11.0,28,30.39,-9999.0,WSW,5.8,-,N/A,,Unknown,240,2014-02-28 23:54:00
7:54 PM,17.1,-13.0,26,30.40,-9999.0,SW,5.8,-,N/A,,Unknown,230,2014-03-01 00:54:00
8:54 PM,15.1,-11.0,31,30.43,-9999.0,West,9.2,-,N/A,,Unknown,260,2014-03-01 01:54:00
9:54 PM,14.0,-9.0,35,30.44,-9999.0,West,10.4,-,N/A,,Unknown,280,2014-03-01 02:54:00
10:54 PM,12.9,-9.0,37,30.44,-9999.0,WNW,9.2,-,N/A,,Unknown,300,2014-03-01 03:54:00
11:54 PM,12.9,-11.9,32,30.45,-9999.0,NW,8.1,-,N/A,,Unknown,320,2014-03-01 04:54:00